Location: Biesenst�ck
(50.7313°N, 7.8457°E)
Time: 09:34:44
(UTC+00:00)

Daily predictions for brighter satellites

Satellite Brightness Start Highest point End
(mag) Time Altitude Azimuth Time Altitude Azimuth Time Altitude Azimuth
STARLINK-1227 3.6 20:11:49 10° WNW 20:14:53 53° N 20:17:56 10° E
STARLINK-1226 3.6 20:12:40 10° WNW 20:15:45 53° N 20:18:49 10° E
STARLINK-1154 4.0 20:11:48 10° W 20:15:56 69° N 20:20:05 10° ENE
SL-4 R/B 3.6 20:14:20 10° WNW 20:16:29 18° WSW 20:18:32 10° SSW
STARLINK-1144 3.6 20:12:30 10° WNW 20:16:39 77° SSW 20:20:47 10° ESE
STARLINK-1215 3.6 20:13:34 10° WNW 20:16:39 53° N 20:19:43 10° E
STARLINK-1243 3.6 20:14:04 10° WSW 20:18:10 68° SSE 20:22:19 10° ENE
Cosmos 2221 Rocket 3.8 20:13:47 10° SSW 20:18:18 79° W 20:22:54 10° N
STARLINK-1217 3.6 20:15:23 10° WNW 20:18:28 53° N 20:21:32 10° E
NOSS 3-2 (A) 4.3 20:11:28 10° NW 20:18:39 65° NE 20:26:52 10° ESE
STARLINK-1229 3.6 20:16:19 10° WNW 20:19:23 53° N 20:22:27 10° E
SPOT 5 3.8 20:15:00 10° SE 20:19:56 42° ENE 20:24:59 10° N
STARLINK-1270 3.6 20:17:12 10° WNW 20:20:16 53° N 20:23:21 10° E
STARLINK-1197 4.0 20:16:46 10° W 20:20:54 67° N 20:25:02 10° ENE
NOSS 8 (F) 4.3 20:18:21 10° SSW 20:21:27 50° SE 20:24:26 10° NE
STARLINK-1103 3.7 20:17:28 10° WNW 20:21:37 74° SSW 20:25:45 10° ESE
Meteor 1-13 Rocket 4.3 20:16:21 10° S 20:21:59 80° E 20:27:47 10° NNE
STARLINK-1189 3.6 20:19:00 10° WNW 20:22:04 54° N 20:25:09 10° E
STARLINK-1188 3.6 20:19:54 10° WNW 20:22:59 54° N 20:26:04 10° E
STARLINK-1236 3.6 20:19:00 10° WSW 20:23:08 72° SSE 20:27:17 10° ENE
STARLINK-1187 3.6 20:21:00 10° WNW 20:24:03 54° N 20:27:07 10° E
ERS-1 Rocket 3.4 20:20:13 10° SE 20:25:04 51° ENE 20:29:58 10° N
STARLINK-1191 3.6 20:22:21 10° WNW 20:25:25 54° N 20:28:28 10° E
STARLINK-1198 4.1 20:21:46 10° W 20:25:53 66° N 20:30:02 10° ENE
STARLINK-1221 3.6 20:23:19 10° WNW 20:26:23 54° N 20:29:26 10° E
STARLINK-1101 3.7 20:22:27 10° WNW 20:26:35 70° SSW 20:30:42 10° ESE
STARLINK-1222 3.6 20:24:10 10° WNW 20:27:13 54° N 20:30:17 10° E
STARLINK-1214 3.6 20:25:04 10° WNW 20:28:08 54° N 20:31:11 10° E
Cosmos 1066 Rocket 4.4 20:24:29 10° S 20:29:39 50° E 20:34:50 10° NNE
USA 238 DEB 4.1 20:23:29 10° NW 20:30:38 71° NE 20:38:02 10° SE
USA 238 4.1 20:23:35 10° NW 20:30:44 70° NE 20:38:09 10° SE
STARLINK-1199 4.1 20:26:46 10° W 20:30:54 65° N 20:35:02 10° ENE
USA 245 2.4 20:28:28 10° SSE 20:31:24 80° WSW 20:33:54 10° NNW
STARLINK-1102 3.7 20:27:26 10° WNW 20:31:34 66° SSW 20:35:40 10° SE
STARLINK-1228 3.7 20:29:07 10° WNW 20:32:36 61° N 20:36:05 10° E
STARLINK-1269 3.6 20:28:57 10° WSW 20:33:05 79° SSE 20:37:15 10° ENE
Okean 1 Rocket 3.2 20:28:46 10° N 20:33:14 67° ENE 20:37:39 10° SSE
Cosmos 1805 3.9 20:29:45 10° N 20:33:30 41° ENE 20:37:07 11° SE
Okean 2 Rocket 4.2 20:29:41 10° NNW 20:33:52 42° W 20:38:00 10° SSW
Cosmos 1741 Rocket 4.4 20:28:44 10° NNW 20:33:53 61° WSW 20:39:00 10° S
Cosmos 2278 Rocket 3.1 20:28:54 10° SW 20:34:28 56° NW 20:40:05 10° NNE
TSX-5 4.3 20:29:11 10° SSW 20:34:36 64° ESE 20:38:50 10° NE
Resurs 01 Rocket 3.0 20:30:56 10° SSW 20:35:04 38° W 20:39:15 10° NNW
STARLINK-1210 4.1 20:31:45 10° W 20:35:53 64° N 20:40:01 10° ENE
STARLINK-1235 3.5 20:32:46 10° WNW 20:35:58 59° N 20:39:11 10° E
Nadezhda 4 Rocket 4.2 20:30:12 10° SSE 20:36:09 56° E 20:42:08 10° NNE
STARLINK-1111 3.8 20:32:25 10° WNW 20:36:31 63° SSW 20:40:34 10° SE
STARLINK-1200 3.6 20:33:54 10° WSW 20:38:03 82° SSE 20:42:13 10° ENE
Cosmos 1455 Rocket 4.4 20:35:01 10° N 20:38:41 26° ENE 20:42:17 10° SE
STARLINK-1219 4.1 20:36:45 10° W 20:40:52 63° N 20:44:59 10° ENE
STARLINK-1073 3.8 20:37:24 10° WNW 20:41:30 59° SSW 20:45:22 11° SE
SL-8 R/B 4.1 20:37:03 10° W 20:41:41 49° SSW 20:46:16 10° SE
STARLINK-1192 3.6 20:38:53 10° WSW 20:43:02 86° SSE 20:47:13 10° ENE
ATLAS CENTAUR R/B 3.3 20:44:03 10° NW 20:45:16 14° N 20:46:26 10° NNE
STARLINK-1211 4.1 20:41:45 10° W 20:45:53 63° N 20:50:00 10° ENE
Cosmos 371 Rocket 4.0 20:41:33 10° SW 20:46:21 60° WNW 20:51:13 10° NNE
STARLINK-1121 3.9 20:42:23 10° WNW 20:46:27 56° SSW 20:50:08 12° SE
SL-4 R/B 3.8 20:44:46 10° S 20:47:50 17° SE 20:50:56 10° E
STARLINK-1244 3.6 20:43:51 10° WSW 20:48:01 89° SSE 20:52:11 10° ENE
Cosmos 1110 Rocket 4.1 20:43:23 10° S 20:48:28 60° ESE 20:53:34 10° NNE
Terra 2.3 20:44:22 11° SE 20:48:44 51° ENE 20:53:21 10° N
Spot 2 Rocket 4.0 20:45:03 10° S 20:50:01 58° WSW 20:55:01 10° NNW
Abrixas rocket 3.4 20:47:37 10° W 20:50:05 24° SSW 20:51:50 14° SSE
SPOT 1/Viking Rocket 3.7 20:45:42 10° S 20:50:51 78° WSW 20:56:03 10° NNW
STARLINK-1245 4.1 20:46:44 10° W 20:50:51 62° N 20:54:59 10° E
STARLINK-1106 3.9 20:47:24 10° WNW 20:51:27 53° SSW 20:54:56 13° SE
CARTOSAT-1 3.6 20:47:49 11° SSE 20:51:58 77° ENE 20:56:18 10° NNW
ERBS 3.9 20:49:12 10° W 20:52:20 39° NNW 20:55:30 10° NE
NOSS 8 (H) 4.1 20:49:32 10° SSW 20:52:37 62° SE 20:55:40 10° NE
STARLINK-1138 3.6 20:48:51 10° WSW 20:53:00 88° NNW 20:57:10 10° ENE
STARLINK-1234 3.3 20:50:32 10° WNW 20:53:49 67° NNE 20:57:05 10° E
STARLINK-1233 4.1 20:51:43 10° W 20:55:50 62° N 20:59:57 10° E
STARLINK-1112 4.0 20:52:21 10° WNW 20:56:23 49° SSW 20:59:41 14° SE
STARLINK-1143 3.7 20:53:48 10° WSW 20:57:57 85° NNW 21:02:08 10° ENE
STARLINK-1209 3.2 20:56:30 10° WNW 20:59:48 71° NNE 21:03:06 10° E
STARLINK-1204 4.1 20:56:43 10° W 21:00:50 62° N 21:04:57 10° E
STARLINK-1128 4.1 20:57:21 10° WNW 21:01:20 46° SSW 21:04:28 15° SE
STARLINK-1241 3.7 20:58:50 10° WSW 21:02:58 82° NNW 21:07:09 10° ENE
Cosmos 1331 Rocket 3.9 21:00:06 10° SSW 21:05:14 73° ESE 21:10:26 10° NNE
STARLINK-1238 4.1 21:01:43 10° W 21:05:51 62° N 21:09:58 10° E
Aureole 2 Rocket 2.7 21:02:58 10° SW 21:06:00 57° WNW 21:08:56 10° NNE
STARLINK-1113 4.2 21:02:21 10° WNW 21:06:18 44° SSW 21:09:16 16° SSE
Cosmos 1733 3.3 21:02:51 10° N 21:06:39 63° ENE 21:09:32 16° SSE
STARLINK-1239 3.7 21:03:48 10° WSW 21:07:57 79° NNW 21:12:07 10° ENE
STARLINK-1201 4.1 21:06:43 10° W 21:10:50 62° N 21:14:57 10° E
Cosmos 1437 Rocket 4.0 21:07:21 10° SW 21:10:56 40° WNW 21:14:35 10° N
STARLINK-1119 4.3 21:07:22 10° WNW 21:11:17 41° SW 21:14:04 17° SSE
STARLINK-1240 3.8 21:08:46 10° WSW 21:12:55 77° NNW 21:17:05 10° ENE
Cosmos 1378 3.0 21:09:41 10° S 21:13:21 85° E 21:17:05 10° NNE
Cosmos 1486 Rocket 4.3 21:08:44 10° NNW 21:14:00 61° ENE 21:18:13 16° SE
Cosmos 1302 Rocket 4.3 21:10:18 10° S 21:15:23 50° ESE 21:20:31 10° NNE
Cosmos 1544 Rocket 4.2 21:11:31 10° N 21:15:38 41° ENE 21:18:39 17° SE
STARLINK-1206 4.1 21:11:43 10° W 21:15:51 62° N 21:19:58 10° E
USA 215 3.8 21:09:37 10° E 21:16:02 60° NNE 21:22:26 10° WNW
STARLINK-1114 4.4 21:12:21 10° WNW 21:16:13 38° SW 21:18:49 18° SSE
Cosmos 1271 Rocket 4.3 21:14:22 15° SE 21:16:14 21° E 21:19:13 10° NE
MTI 4.3 21:14:15 10° NNE 21:17:14 39° E 21:18:58 20° SSE
Cosmos 1242 Rocket 3.8 21:15:26 18° SE 21:17:20 27° E 21:20:30 10° NNE
Cosmos 304 Rocket 4.3 21:13:00 10° SW 21:17:44 63° WNW 21:22:31 10° NNE
STARLINK-1203 3.9 21:13:36 10° W 21:17:48 75° NNW 21:22:02 10° ENE
STARLINK-1216 3.8 21:13:45 10° W 21:17:54 75° NNW 21:22:03 10° ENE
Lacrosse 5 4.1 21:15:58 10° W 21:18:10 13° WSW 21:20:22 10° SSW
STARLINK-60 4.4 21:20:10 19° SE 21:20:10 19° SE 21:22:05 10° E
STARLINK-1205 4.1 21:16:42 10° WNW 21:20:49 63° N 21:24:56 10° E
STARLINK-1130 (DARKSAT) 4.4 21:17:21 10° WNW 21:21:10 36° SW 21:23:37 19° SSE
Cosmos 1092 Rocket 4.0 21:15:33 10° S 21:21:39 76° E 21:27:49 10° NNE
NOSS 2-2 (D) 3.1 21:18:52 10° SW 21:22:26 77° SE 21:26:34 10° NE
STARLINK-1237 3.9 21:18:45 10° W 21:22:54 73° NNW 21:27:03 10° ENE
CENTAUR R/B 3.3 21:15:19 10° NW 21:23:12 81° NE 21:31:08 13° SE
STARLINK-1218 4.1 21:21:42 10° WNW 21:25:50 63° N 21:29:57 10° E
Cosmos 1707 4.3 21:24:35 16° ESE 21:26:21 22° E 21:29:22 10° NE
ATLAS 3B R/B 3.4 21:19:52 10° NW 21:26:26 51° NE 21:33:11 10° ESE
SL-27 R/B 2.4 21:23:39 10° NNW 21:27:17 86° ENE 21:29:28 22° SSE
STARLINK-1202 3.9 21:23:44 10° W 21:27:53 71° N 21:32:02 10° ENE
NOSS 3-2 (C) 4.1 21:21:04 10° NW 21:28:28 90° SW 21:35:36 15° SE
Cosmos 1766 3.7 21:25:43 10° NNW 21:29:38 57° W 21:32:47 15° S
Cosmos 1726 4.0 21:27:49 10° NNE 21:30:41 20° ENE 21:32:50 13° ESE
STARLINK-1254 4.0 21:26:41 10° WNW 21:30:49 64° N 21:34:56 10° E
Cosmos 1867 3.9 21:28:02 10° NW 21:33:29 61° NE 21:38:06 14° ESE
ALOS 2 4.5 21:30:29 10° ESE 21:33:43 20° ENE 21:36:56 10° NNE
COSMOS 2487 4.2 21:31:54 10° N 21:34:44 23° NE 21:37:03 13° ESE
STARLINK-1231 4.0 21:31:40 10° WNW 21:35:48 65° N 21:39:55 10° E
STARLINK-1246 4.0 21:33:45 10° W 21:37:53 68° N 21:42:01 10° ENE
Cosmos 1943 Rocket 2.1 21:33:02 10° SSW 21:38:35 77° ESE 21:44:12 10° NNE
Cosmos 2297 4.4 21:33:15 10° SW 21:38:51 58° NW 21:44:31 10° NNE
NOSS 2-2 (E) 3.7 21:36:10 10° SW 21:39:47 65° NW 21:44:07 10° NE
NOSS 3-4 (A) 4.2 21:36:32 17° SSE 21:40:08 32° ESE 21:45:35 10° NE
NOSS 3-4 (C) 4.2 21:36:40 17° SSE 21:40:14 31° ESE 21:45:41 10° ENE
STARLINK-1232 4.0 21:36:40 10° WNW 21:40:48 66° N 21:44:56 10° E
Cosmos 2082 Rocket 4.5 21:38:49 10° WNW 21:41:55 15° W 21:45:00 10° SW
SeaSat 1 3.5 21:38:18 10° NE 21:42:28 27° ESE 21:44:34 20° SE
STARLINK-1224 4.0 21:38:44 10° W 21:42:52 66° N 21:47:00 10° ENE
EO 1 Del DPAF 4.3 21:39:38 10° NE 21:42:59 29° E 21:44:29 22° SE
STARLINK-1208 3.9 21:41:38 10° WNW 21:45:46 67° N 21:49:54 10° E
Cosmos 1461 4.5 21:43:06 10° WSW 21:47:06 40° NW 21:51:19 10° NNE
STARLINK-1225 4.0 21:43:44 10° W 21:47:52 65° N 21:52:00 10° ENE
Cosmos 1975 Rocket 3.2 21:44:36 14° SSW 21:48:23 76° WNW 21:52:48 10° N
STARLINK-1212 2.7 21:45:52 10° WNW 21:49:00 84° SSW 21:50:47 23° ESE
STARLINK-1105 2.7 21:46:21 10° WNW 21:49:28 83° SSW 21:51:12 24° ESE
STARLINK-1247 2.7 21:47:13 10° WNW 21:50:21 82° SSW 21:52:06 24° ESE
Meteor 2-10 4.4 21:45:34 10° N 21:50:29 49° ENE 21:53:43 20° SE
STARLINK-1271 3.9 21:46:39 10° WNW 21:50:48 69° N 21:54:56 10° E
STARLINK-1227 2.7 21:47:43 10° WNW 21:50:49 82° SSW 21:52:32 24° ESE
BREEZE-M DEB (TANK) 3.5 21:37:45 10° WSW 21:51:34 67° SSE 21:55:19 10° E
STARLINK-1226 2.7 21:48:34 10° WNW 21:51:42 81° SSW 21:53:23 24° ESE
Cosmos 292 Rocket 3.8 21:48:20 17° S 21:51:55 62° ESE 21:56:44 10° NNE
BREEZE-M DEB (TANK) 2.8 21:48:18 10° W 21:52:17 74° S 21:56:04 10° ESE
STARLINK-1215 2.7 21:49:28 10° WNW 21:52:36 80° SSW 21:54:16 25° ESE
STARLINK-1230 4.1 21:48:43 10° W 21:52:51 64° N 21:56:59 10° ENE
S3M 4.2 21:47:45 10° N 21:53:53 61° ENE 21:58:10 20° SSE
STARLINK-1217 2.7 21:51:17 10° WNW 21:54:25 79° SSW 21:56:00 26° ESE
Cosmos 2369 Rocket 2.1 21:49:06 10° SSW 21:54:46 75° ESE 22:00:25 10° NNE
STARLINK-1229 2.7 21:52:12 10° WNW 21:55:19 78° SSW 21:56:54 26° ESE
STARLINK-1154 3.9 21:51:38 10° WNW 21:55:47 70° N 21:59:55 10° E
STARLINK-1270 2.7 21:53:06 10° WNW 21:56:13 77° SSW 21:57:46 27° ESE
Aureole 3 Rocket 4.3 21:51:30 10° N 21:57:33 89° W 22:03:54 19° S
STARLINK-1243 4.1 21:53:44 10° W 21:57:51 64° N 22:01:59 10° ENE
STARLINK-1189 2.7 21:54:53 10° WNW 21:58:01 75° SSW 21:59:28 28° ESE
SPOT 5 4.3 21:53:31 11° SSW 21:58:04 35° W 22:02:58 10° NNW
STARLINK-1188 2.7 21:55:48 10° WNW 21:58:55 74° SSW 22:00:22 29° ESE
STARLINK-1187 2.8 21:56:54 10° WNW 21:59:59 68° SSW 22:01:14 32° SE
Cosmos 1340 Rocket 3.6 21:56:29 10° N 22:00:21 41° ENE 22:02:31 22° SE
ATLAS CENTAUR R/B 2.5 21:59:35 24° SE 22:00:33 26° ESE 22:04:03 10° ENE
STARLINK-1197 3.8 21:56:36 10° WNW 22:00:45 72° NNE 22:04:53 10° E
STARLINK-1191 2.7 21:58:15 10° WNW 22:01:21 72° SSW 22:02:40 31° SE
Aureole 3 4.4 21:59:27 10° NNE 22:02:11 24° ENE 22:03:24 19° ESE
STARLINK-1221 2.7 21:59:12 10° WNW 22:02:18 71° SSW 22:03:34 31° SE
STARLINK-1236 4.1 21:58:42 10° W 22:02:50 63° N 22:06:58 10° ENE
STARLINK-1222 2.7 22:00:02 10° WNW 22:03:08 70° SSW 22:04:23 32° SE
Thor Agena Rocket 3.8 21:58:38 10° NNE 22:03:53 58° ESE 22:07:12 22° S
STARLINK-1214 2.7 22:00:56 10° WNW 22:04:02 69° SSW 22:05:16 33° SE
NOSS 2-2 (C) 4.2 22:00:55 10° WSW 22:04:28 50° NW 22:08:40 10° NE
Cosmos 1025 Rocket 3.2 22:02:57 26° SSE 22:05:14 58° E 22:09:29 10° NNE
EXPRESS MD2 4.0 22:01:39 10° WSW 22:05:38 78° SSE 22:14:02 10° E
STARLINK-1198 3.8 22:01:35 10° WNW 22:05:44 74° NNE 22:09:53 10° E
Okean 2 4.4 22:02:00 11° SSW 22:05:48 44° WNW 22:09:50 10° N
Cosmos 2026 Rocket 4.2 22:00:23 12° SSW 22:06:10 73° W 22:12:34 10° N
Cosmos 1553 Rocket 4.0 22:01:05 10° N 22:07:25 85° W 22:11:43 21° S
BREEZE M DEB (TANK) 1.7 22:04:45 10° WSW 22:07:55 61° S 22:08:33 38° ESE
ATLAS 2AS CENTAUR R/B 3.2 22:00:30 10° SSW 22:08:12 56° ESE 22:15:54 10° NE
Cosmos 1656 Rocket 3.9 22:04:50 21° S 22:08:26 52° ESE 22:13:50 10° NE
Cosmos 1953 2.6 22:04:48 10° N 22:08:46 56° ENE 22:10:41 27° SE
BREEZE-M DEB (TANK) 4.4 21:55:41 10° WNW 22:09:12 56° SW 22:11:56 23° SE
STARLINK-1228 3.3 22:06:24 10° WNW 22:09:51 55° SSW 22:11:08 33° SE
Cosmos 1470 2.9 22:06:00 10° NNW 22:09:52 64° W 22:11:51 26° S
STARLINK-1199 3.7 22:06:35 10° WNW 22:10:44 76° NNE 22:14:53 10° E
STARLINK-1235 3.1 22:09:08 10° WNW 22:12:18 53° SSW 22:13:12 38° SSE
STARLINK-1269 4.1 22:08:42 10° W 22:12:50 62° N 22:16:57 10° E
APEX 4.2 22:06:47 11° SSW 22:12:57 76° ESE 22:18:11 10° NE
Cosmos 2292 Rocket 4.1 22:13:23 25° SE 22:14:24 30° E 22:17:16 10° NNE
Cosmos 968 Rocket 3.7 22:09:26 10° NNW 22:14:31 60° WSW 22:17:31 24° S
STARLINK-1210 3.7 22:11:33 10° WNW 22:15:43 78° NNE 22:19:52 10° ESE
Cosmos 1455 Rocket 4.1 22:12:37 10° NNW 22:16:38 38° W 22:19:25 18° SSW
STARLINK-1200 4.1 22:13:41 10° W 22:17:48 62° N 22:21:56 10° E
Cosmos 1655 Rocket 4.0 22:15:01 22° S 22:19:11 70° E 22:25:26 10° NNE
SL-4 R/B 1.7 22:20:17 32° ENE 22:20:19 32° ENE 22:22:20 10° N
STARLINK-1219 3.7 22:16:31 10° WNW 22:20:41 81° NNE 22:24:50 10° ESE
ATLAS 5 CENTAUR R/B 1.9 22:21:46 31° S 22:22:38 38° SE 22:24:50 10° ENE
STARLINK-1192 4.1 22:18:42 10° W 22:22:48 62° N 22:26:56 10° E
Cosmos 1758 3.8 22:19:21 10° NNW 22:23:20 54° W 22:25:25 26° SSW
STARLINK-52 4.5 22:26:28 22° ESE 22:26:28 22° ESE 22:28:05 10° E
STARLINK-1211 3.6 22:21:31 10° WNW 22:25:42 84° NNE 22:29:40 11° ESE
Cosmos 2228 4.0 22:22:28 10° N 22:26:26 37° ENE 22:28:36 22° SE
Terra 3.6 22:23:15 11° SW 22:26:45 24° W 22:30:37 10° NW
SL-4 R/B 2.5 22:22:08 10° SW 22:26:50 54° SSE 22:31:34 10° ENE
STARLINK-1244 4.1 22:23:40 10° W 22:27:48 62° N 22:31:55 10° E
STARLINK-1234 3.5 22:26:57 10° WNW 22:30:01 39° SSW 22:30:16 38° SSW
STARLINK-1245 3.6 22:26:30 10° WNW 22:30:40 87° NNE 22:34:26 12° ESE
STARLINK-1138 4.1 22:28:40 10° W 22:32:48 62° N 22:36:55 10° E
In-Cosmos 22 4.2 22:30:05 26° SSE 22:32:58 61° E 22:38:11 10° NNE
Cosmos 1503 Rocket 4.3 22:29:27 10° NNW 22:34:40 57° WSW 22:37:35 26° S
STARLINK-1233 3.5 22:31:27 10° WNW 22:35:37 90° NE 22:39:12 14° ESE
STARLINK-1209 3.7 22:33:09 10° W 22:36:11 34° SSW 22:36:13 34° SSW
Cosmos 2266 Rocket 4.0 22:33:43 24° S 22:37:26 70° E 22:43:27 10° NNE
STARLINK-1143 4.1 22:33:39 10° W 22:37:46 63° N 22:41:54 10° E
STARLINK-1204 3.5 22:36:27 10° WNW 22:40:37 87° SSW 22:43:59 15° ESE
SJ 16-02 3.8 22:39:29 10° N 22:42:28 17° NE 22:45:27 10° E
STARLINK-1241 4.1 22:38:40 10° WNW 22:42:48 63° N 22:46:56 10° E
Cosmos 2263 4.4 22:39:18 11° SW 22:44:42 69° WNW 22:50:20 10° NNE
STARLINK-1238 3.5 22:41:27 10° WNW 22:45:37 84° SSW 22:48:47 17° ESE
STARLINK-1239 4.0 22:43:39 10° WNW 22:47:47 64° N 22:51:55 10° E
Cosmos 1536 Rocket 3.9 22:45:44 24° SSW 22:48:13 61° WNW 22:52:34 10° N
Cosmos 1674 3.0 22:48:20 35° SSE 22:49:32 50° E 22:53:13 10° NNE
STARLINK-1201 3.5 22:46:25 10° WNW 22:50:34 80° SSW 22:53:33 18° ESE
Cosmos 1271 Rocket 3.9 22:49:29 18° SW 22:51:59 38° WNW 22:55:42 10° N
Cosmos 1242 Rocket 4.4 22:49:25 12° WSW 22:52:11 26° WNW 22:55:20 10° N
STARLINK-1240 4.0 22:48:37 10° WNW 22:52:45 65° N 22:56:53 10° E
Cosmos 883 Rocket 4.4 22:49:09 10° NNW 22:55:19 82° W 22:58:57 26° S
STARLINK-60 2.8 22:52:21 11° WSW 22:55:26 85° SSE 22:58:38 10° ENE
STARLINK-1206 3.5 22:51:25 10° WNW 22:55:34 76° SSW 22:58:21 20° ESE
COSMOS 2455 2.8 22:52:50 22° SSW 22:56:52 71° ESE 23:02:54 10° NE
Cosmos 2219 4.1 22:51:47 10° NNW 22:57:15 45° NE 23:02:17 12° ESE
STARLINK-1216 4.0 22:53:36 10° WNW 22:57:44 66° N 23:01:52 10° E
STARLINK-1203 4.0 22:53:41 10° WNW 22:57:52 66° N 23:02:04 10° E
USA 215 3.2 22:52:56 13° SE 22:58:59 76° SW 23:05:34 10° WNW
STARLINK-1205 3.5 22:56:23 10° WNW 23:00:31 73° SSW 23:03:07 22° ESE
Cosmos 2297 Rocket 3.3 22:56:08 10° NNW 23:01:30 41° NE 23:06:49 10° ESE
Cosmos 1707 3.9 22:59:44 19° SW 23:02:01 36° WNW 23:05:39 10° N
STARLINK-1237 4.0 22:58:35 10° WNW 23:02:44 67° N 23:06:52 10° E
Helios 1A 3.0 23:01:35 31° SSE 23:03:30 73° ENE 23:07:41 10° N
Lacrosse 4 Rocket 3.9 23:01:40 10° NNW 23:05:01 21° NE 23:08:17 10° E
STARLINK-1218 3.5 23:01:23 10° WNW 23:05:31 69° SSW 23:07:55 24° SE
Cosmos 1726 3.1 23:02:34 10° NNW 23:06:00 36° W 23:07:20 27° SW
STARLINK-1202 3.9 23:03:35 10° WNW 23:07:44 68° N 23:11:52 10° E
Cosmos 1174 3.4 23:06:36 37° SW 23:07:51 90° NW 23:11:46 10° NE
Timation 2 Rocket 3.9 23:02:37 10° NNW 23:09:01 87° WSW 23:12:55 24° SSE
ALOS 2 2.8 23:07:47 31° SSW 23:09:40 58° W 23:14:01 10° NNW
Cosmos 2058 Rocket 3.5 23:05:24 10° N 23:09:46 55° ENE 23:11:58 27° SE
COSMOS 2487 3.5 23:06:43 10° NW 23:09:51 31° WSW 23:10:32 29° SW
STARLINK-1254 3.5 23:06:21 10° WNW 23:10:29 66° SSW 23:12:41 26° SE
CENTAUR R/B 4.0 23:06:26 10° NW 23:13:37 36° WSW 23:18:17 21° SSW
STARLINK-1231 3.6 23:11:20 10° WNW 23:15:26 62° SSW 23:17:27 28° SE
Meteor 2-5 Rocket 3.8 23:14:12 28° S 23:17:08 65° E 23:22:44 10° NNE
ATLAS 3B R/B 2.9 23:10:41 10° NW 23:17:15 53° WSW 23:21:09 25° S
STARLINK-1246 3.8 23:13:34 10° WNW 23:17:43 71° NNE 23:21:52 10° E
STARLINK-1378 4.4 23:18:28 29° SE 23:18:28 29° SE 23:21:25 10° E
Cosmos 1606 Rocket 3.6 23:15:31 10° NNW 23:19:49 65° W 23:21:36 33° SSW
SeaSat 1 2.9 23:15:25 10° NNE 23:20:16 58° NW 23:24:20 15° SW
STARLINK-1232 3.6 23:16:20 10° WNW 23:20:25 58° SSW 23:22:15 30° SE
SL-14 R/B 4.0 23:19:11 31° SE 23:20:26 41° E 23:24:04 10° NNE
FALCON 9 DEB 3.2 23:20:07 49° S 23:20:30 52° SSE 23:23:53 10° ENE
STARLINK-1379 4.3 23:21:51 31° SE 23:21:51 31° SE 23:24:57 10° E
STARLINK-1224 3.8 23:18:33 10° WNW 23:22:42 73° NNE 23:26:51 10° E
Cosmos 1943 Rocket 4.2 23:18:18 10° W 23:22:56 26° NW 23:27:39 10° NNE
STARLINK-1329 4.2 23:23:14 32° SE 23:23:14 32° SE 23:26:26 10° E
Cosmos 2098 Rocket 4.4 23:20:08 24° SSW 23:24:54 82° W 23:32:26 10° N
STARLINK-29 2.8 23:24:02 33° WSW 23:25:20 80° SSE 23:28:33 10° ENE
STARLINK-1208 3.7 23:21:18 10° WNW 23:25:22 55° SSW 23:27:00 32° SSE
STARLINK-1362 4.1 23:26:40 33° SE 23:26:40 33° SE 23:30:02 10° E
SL-16 R/B 4.4 23:22:20 10° ESE 23:27:10 25° NE 23:32:01 10° N
ATLAS CENTAUR R/B 1.3 23:25:37 10° NW 23:27:42 62° NNE 23:31:25 10° ESE
STARLINK-1225 3.8 23:23:33 10° WNW 23:27:43 75° NNE 23:31:52 10° E
STARLINK-1373 4.0 23:30:05 35° SSE 23:30:07 35° SE 23:33:38 10° ENE
STARLINK-1271 3.7 23:26:19 10° WNW 23:30:21 52° SSW 23:31:49 34° SSE
NOSS 3-4 (A) 3.8 23:24:34 10° SW 23:30:34 67° NW 23:37:04 10° NE
NOSS 3-4 (C) 3.8 23:24:39 10° SW 23:30:39 68° NW 23:37:10 10° NE
STARLINK-1365 4.0 23:31:12 37° SSE 23:31:20 37° SE 23:34:54 10° ENE
RESURS DK-1 2.3 23:29:48 35° SSW 23:31:26 76° ESE 23:35:36 10° NE
STARLINK-1230 3.7 23:28:31 10° WNW 23:32:41 78° NNE 23:36:50 10° ESE
Cosmos 2315 Rocket 4.3 23:27:23 10° NNW 23:33:25 55° W 23:36:59 25° SSW
STARLINK-1390 3.9 23:33:34 37° SSE 23:33:43 37° SE 23:37:16 10° ENE
STARLINK-1154 3.8 23:31:18 10° WNW 23:35:19 49° SSW 23:36:35 35° SSE
Cosmos 2084 3.6 23:33:37 33° SSW 23:35:25 61° SE 23:39:51 10° NE
BREEZE-M R/B 4.0 23:31:44 17° SW 23:36:26 38° SSE 23:40:05 10° E
Cosmos 1626 2.2 23:36:00 40° SSE 23:37:11 66° E 23:40:53 10° NNE
STARLINK-1243 3.7 23:33:31 10° WNW 23:37:41 80° NNE 23:41:50 10° ESE
Cosmos 2227 Rocket 2.6 23:32:54 10° NNW 23:38:34 62° NE 23:43:30 14° SE
ATLAS CENTAUR R/B 2.1 23:35:42 14° WSW 23:39:17 52° NW 23:43:16 10° NE
Cosmos 2369 Rocket 4.1 23:34:36 10° W 23:39:22 27° NW 23:44:09 10° NNE
Okean 1-7 Rocket 3.6 23:37:39 33° S 23:39:37 79° E 23:44:12 10° NNE
STARLINK-1197 3.9 23:36:16 10° WNW 23:40:15 46° SSW 23:41:21 36° S
Cosmos 1908 4.3 23:37:50 10° NNW 23:41:17 32° W 23:42:29 26° SW
CZ-4 R/B 4.2 23:36:58 10° NNE 23:41:40 53° E 23:43:50 29° SSE
STARLINK-1236 3.6 23:38:29 10° WNW 23:42:39 83° NNE 23:46:48 10° ESE
Nadezhda 2 Rocket 4.4 23:39:44 26° SSW 23:43:20 85° W 23:49:33 10° N
STARLINK-1198 3.9 23:41:16 10° WNW 23:45:12 43° SSW 23:46:07 37° S
Landsat 4 3.8 23:45:52 10° N 23:49:35 70° WNW 23:51:00 35° SSW
STARLINK-1199 4.0 23:46:17 10° WNW 23:50:11 40° SW 23:50:56 36° S
STARLINK-1269 3.6 23:48:27 10° WNW 23:52:37 89° NNE 23:56:47 10° ESE
Meteor 2-21 Rocket 4.5 23:50:06 26° S 23:53:45 83° E 23:59:58 10° NNE
STARLINK-1210 4.1 23:51:16 10° WNW 23:55:08 38° SW 23:55:42 36° SSW
